Weather in Óbidos

Portugal     39°21′34″N   9°09′20″W
temp.,
°C
wind,
m/s
gust,
m/s
humid.,
%
clouds,
%
prec.,
mm/h
press.,
hPa
HPBL,
m
29 november, mon
mon2900:00+13nw6128552 0.6 1025983
03:00+13nnw61177100 0.3 1025927
06:00+13nnw61077100 0.4 1025792
09:00+13nnw597569 0.2 1026846
12:00+15nnw686286 0.3 10261187
15:00+15nnw687032 0.1 10251125
18:00+12nnw487594 0.1 1025377
21:00+12nnw2469100 0.1 1026125
30 november, tue
tue3000:00+12w117427 0.1 102511
03:00+10sse11885 0.0 102510
06:00+8ese119348 0.0 102511
09:00+10ese22825 0.0 102690
12:00+15e1256100 0.0 1027808
15:00+16ene114938 0.0 1025946
18:00+11e116959 0.0 102611
21:00+9ese11746 0.0 102710
1 december, wed
wed100:00+8ese11765 0.0 102710
03:00+8ene00785 0.0 102610
06:00+7sse11835 0.0 102511
09:00+11sw117394 0.0 102653
12:00+15w4881100 0.0 1025662
15:00+15nw588091 0.2 1023829
18:00+13nnw61190100 0.4 1022758
21:00+13nnw61078100 0.2 10231061
2 december, thu
thu200:00+12nnw6117670 0.4 10211072
03:00+12nnw7137757 0.1 10201143
06:00+12nnw8147667 0.5 10201281
09:00+12n8147891 1.1 10211301
12:00+14n813695 1.4 10221422
15:00+13n913584 0.1 10211520
18:00+11n812633 0.1 10231130
21:00+11n611660 0.0 10251045
3 december, fri
fri300:00+11n711640 0.0 1025974
03:00+11n713680 0.0 1026864
06:00+11n612750 0.0 1026750
09:00+12n512780 0.0 1027758
12:00+15n59701 0.0 1028787
15:00+15nnw586992 0.0 10271125
18:00+13nw38878 0.1 1028422
21:00+12nw399521 0.0 1028338